Theta_e
317 317 317 317 317 317 317 317 317 317 315 314 316 317 319 320 320 320 328 331 331 332 335 338 342 342 341 340 340 343 353 355 353 351 355 350 349 348 350 348 343 343 349 351 350
316 317 317 317 317 317 317 317 318 318 316 314 315 316 318 320 321 323 331 330 330 332 335 336 340 338 338 338 342 345 352 352 349 348 349 350 349 349 346 346 343 345 348 350 350
314 315 316 316 317 317 318 318 318 319 317 315 314 315 318 320 323 331 332 331 333 335 335 337 336 333 335 337 341 344 353 349 348 348 348 348 347 346 350 350 346 345 345 350 349
317 316 314 315 315 316 317 318 319 319 318 317 314 315 317 319 334 330 332 330 334 335 332 335 332 332 335 340 342 350 341 344 348 348 348 349 348 349 348 346 345 344 344 347 347
321 321 319 316 315 316 317 318 319 320 319 318 316 315 316 324 328 330 328 329 332 334 334 332 332 333 334 339 343 347 349 348 348 348 348 348 349 350 346 341 344 344 343 343 345
325 324 324 323 320 317 317 317 318 320 320 319 318 317 317 328 331 329 329 328 330 331 334 331 332 333 334 336 345 339 343 347 346 348 347 349 350 350 346 344 344 344 343 342 344
326 326 326 326 325 322 319 317 318 320 321 321 318 318 324 328 328 331 331 329 328 332 331 331 331 332 334 338 343 343 348 346 338 344 348 348 350 347 348 346 343 343 343 342 341
325 326 326 327 327 326 323 319 317 319 320 321 321 319 324 325 328 328 331 331 329 330 329 329 329 331 333 334 339 344 346 353 343 348 348 348 352 349 348 345 345 344 343 342 342
324 325 325 326 327 327 325 320 317 317 319 320 322 321 326 324 326 327 330 330 329 329 329 329 329 331 333 337 339 344 348 349 352 343 349 348 353 349 348 343 344 345 343 343 342
324 324 324 325 326 328 322 319 316 316 317 318 325 330 328 328 325 324 329 328 328 329 329 329 329 332 334 337 340 342 341 341 352 352 346 350 351 351 348 345 346 345 344 344 344
321 323 324 324 325 328 320 318 324 326 327 327 328 327 329 327 326 323 329 329 329 328 330 330 331 331 333 336 337 338 336 337 340 344 344 346 349 349 350 348 346 346 346 343 345
318 320 321 324 324 327 323 325 326 328 329 331 326 330 328 326 325 325 328 329 328 330 329 329 331 331 332 333 333 335 335 337 338 339 341 342 344 348 351 350 346 348 344 341 344
318 319 320 322 324 326 328 326 328 325 326 326 328 327 330 328 328 328 328 328 330 330 331 330 330 331 332 331 333 333 334 336 337 335 334 341 343 346 340 350 347 346 346 343 345
317 318 319 321 327 331 331 329 326 326 329 330 327 328 328 329 329 328 327 329 330 331 333 333 331 330 331 330 331 332 334 336 335 334 335 341 342 346 342 339 344 346 345 345 344
317 317 319 320 328 330 331 327 326 326 334 330 329 327 326 329 329 328 330 330 331 332 332 332 333 331 330 329 330 331 333 333 334 334 335 341 343 347 345 347 342 348 345 345 344
316 319 321 321 322 329 330 327 326 330 333 330 329 329 327 329 329 330 329 331 331 331 332 333 331 331 330 329 330 330 332 333 333 336 338 337 342 345 345 340 343 347 347 346 345
317 323 326 325 331 328 329 328 332 332 332 331 331 331 328 328 329 330 331 331 331 333 333 332 331 330 329 328 328 329 332 334 335 339 341 338 344 343 343 342 343 345 346 347 346
321 327 328 325 328 328 330 331 334 333 333 330 330 330 332 331 330 328 331 332 332 332 332 331 330 330 329 328 326 328 330 334 337 339 336 341 344 343 342 339 338 340 342 345 346
326 330 331 331 328 329 332 334 334 333 331 331 331 330 330 330 331 330 329 331 332 332 333 331 330 331 330 329 328 327 331 331 331 333 333 333 337 337 338 339 339 340 340 341 344
328 333 332 329 329 330 333 332 333 331 330 331 332 332 331 331 331 330 331 331 332 332 332 332 330 331 330 328 327 326 330 332 332 335 333 332 338 343 344 343 341 341 341 341 343
329 335 332 329 329 331 335 333 332 331 330 331 332 332 333 331 331 332 331 331 333 332 332 331 331 331 331 330 328 326 328 330 332 332 335 334 339 341 341 338 339 342 342 343 342
333 337 332 330 332 333 334 335 332 333 330 331 332 332 333 333 333 333 332 333 331 332 333 332 332 332 331 331 331 329 328 329 333 334 333 334 335 338 340 340 342 342 334 340 341
331 330 329 330 336 337 334 333 331 331 331 333 333 333 334 334 334 334 334 332 332 332 331 332 332 333 333 332 332 332 330 328 330 330 336 333 337 339 338 337 341 343 340 341 340
329 333 332 330 330 330 332 332 332 331 331 329 330 331 332 334 333 334 334 333 333 332 328 329 330 332 333 333 333 334 333 329 328 332 332 332 334 338 337 336 341 345 344 342 344
325 327 323 330 329 328 326 326 328 330 329 331 332 332 331 333 334 334 334 334 335 334 333 331 332 331 331 331 331 332 333 333 330 330 333 333 334 339 338 337 341 343 345 345 347
324 324 322 323 325 325 323 325 327 327 327 328 328 326 327 332 332 333 331 332 333 335 336 335 337 337 333 331 331 331 331 332 333 330 330 331 332 337 334 339 338 341 344 346 348
320 322 325 325 325 324 326 326 325 323 323 323 324 325 326 327 325 324 325 327 330 332 335 336 337 339 339 335 334 333 332 332 333 333 330 332 334 340 339 341 344 346 345 347 348
Wind_Speed
6 6 5 5 5 6 6 6 6 6 6 8 8 7 7 7 8 9 10 8 13 8 9 5 8 9 12 13 6 5 5 4 2 7 3 7 8 6 0 7 6 6 18 21 17
6 6 6 6 6 6 6 6 5 5 6 7 7 7 7 7 9 15 13 12 13 11 9 9 12 7 13 14 2 2 4 12 11 6 2 6 7 6 5 4 6 15 20 22 20
7 7 7 7 7 7 6 6 5 5 5 5 7 7 7 7 10 19 16 15 12 10 10 13 11 10 16 9 7 14 3 15 8 8 4 9 5 8 6 5 15 16 13 24 19
8 7 7 7 8 7 6 6 6 4 4 4 5 7 7 8 2 2 13 14 11 11 10 12 10 15 14 9 6 9 12 34 7 5 4 3 9 16 13 7 15 12 13 21 16
8 8 8 8 8 8 7 6 5 4 4 3 4 6 7 9 22 7 8 13 13 13 11 13 14 15 13 11 10 12 8 14 6 1 5 6 7 10 8 8 5 12 11 12 17
9 9 9 9 8 8 8 7 6 5 4 4 4 5 7 16 4 5 6 13 13 14 12 12 13 11 10 13 5 5 6 9 16 4 7 5 9 12 18 19 17 12 12 12 14
11 11 10 10 9 9 8 8 7 5 4 4 5 6 11 20 6 6 9 13 15 14 15 14 12 12 17 7 4 11 13 17 5 13 4 7 5 5 14 17 11 15 12 12 12
11 11 11 11 10 10 9 8 7 6 5 5 5 6 11 9 19 11 11 14 15 16 15 15 10 12 17 16 10 14 14 6 8 9 6 12 3 9 14 12 12 14 13 14 14
12 12 12 11 10 10 9 6 6 7 7 6 5 7 19 14 17 15 14 15 15 15 14 13 10 16 20 16 7 2 4 1 8 7 7 10 2 11 18 19 18 18 11 13 15
13 12 12 11 10 9 6 3 4 6 7 7 10 9 20 17 18 21 18 16 14 14 15 14 15 13 14 13 10 6 13 15 11 11 9 9 6 14 20 21 20 14 22 18 19
14 13 12 11 9 7 3 2 4 5 15 16 13 13 3 12 12 18 20 17 13 15 14 17 12 14 18 17 20 9 9 13 8 10 4 9 14 18 23 18 18 22 25 21 25
15 14 12 12 10 8 7 7 10 10 13 26 24 21 14 3 11 17 19 18 18 17 15 14 17 16 18 18 17 9 14 16 1 4 7 11 13 8 17 21 22 24 22 25 23
17 15 12 11 9 10 10 12 10 8 10 19 28 26 19 11 15 19 22 22 18 17 16 17 17 17 18 15 18 10 14 16 3 7 7 5 13 5 13 14 23 23 26 27 22
18 16 11 7 4 4 10 9 8 7 6 13 18 22 22 18 19 21 24 22 17 20 17 14 18 18 9 12 17 14 13 9 9 12 14 10 10 7 4 17 18 27 28 26 23
20 16 10 7 5 4 2 2 4 5 5 10 12 3 15 23 1 20 24 22 21 18 14 16 16 15 16 20 12 15 15 2 14 14 17 14 9 8 17 14 32 27 31 26 26
19 14 7 6 8 10 2 4 3 6 9 9 11 10 14 24 21 9 19 21 18 19 19 19 19 15 15 14 14 18 16 9 16 14 13 14 11 11 7 5 15 16 32 30 26
16 7 3 7 2 4 6 5 6 8 2 8 9 12 14 16 18 16 16 17 14 15 16 18 20 18 14 12 17 16 13 10 12 11 12 4 11 4 15 15 18 17 26 34 30
9 4 2 7 5 4 6 8 8 12 11 6 3 10 11 15 18 20 16 15 20 20 17 14 13 23 17 19 15 17 18 12 16 8 7 18 10 11 14 18 9 5 7 25 30
2 3 3 5 6 7 11 10 10 7 11 12 12 9 13 15 15 17 23 17 17 20 19 18 19 14 19 15 15 19 15 16 22 21 15 12 5 8 8 6 11 9 10 7 20
4 7 0 2 7 9 8 14 15 6 9 9 15 16 13 14 13 16 18 20 18 18 20 18 17 18 4 8 16 18 17 14 11 14 13 11 4 7 10 11 7 10 10 8 12
6 7 3 3 7 10 8 13 10 7 5 9 13 15 15 14 18 15 18 16 18 16 17 19 16 17 17 13 14 13 16 18 17 11 12 11 1 6 8 11 15 11 6 13 11
9 3 4 7 9 13 11 6 6 9 13 7 8 14 13 16 17 19 17 16 15 19 15 16 16 16 20 21 11 14 18 19 13 14 13 13 13 14 12 13 13 30 28 21 11
9 4 2 7 8 9 8 4 10 8 11 9 8 12 13 14 15 15 18 21 27 11 6 11 9 11 16 17 19 16 16 20 17 17 17 12 4 8 12 4 8 32 32 13 7
8 3 7 8 12 10 11 11 10 1 4 10 13 12 15 15 14 17 16 18 24 19 7 6 12 17 16 16 17 1 19 17 22 15 16 15 8 11 11 11 12 14 16 12 13
5 6 8 5 7 10 11 13 11 13 12 4 6 12 14 14 16 16 18 15 18 22 14 9 19 20 24 28 27 20 17 24 20 20 19 16 10 10 6 7 9 13 16 17 17
10 8 16 16 11 10 11 10 10 10 14 13 15 17 18 16 11 19 20 18 15 19 15 11 11 17 26 26 28 28 21 23 23 20 22 22 18 13 21 11 20 29 23 20 21
15 9 10 12 8 10 6 10 11 12 11 11 13 11 13 15 23 22 23 26 22 18 18 16 13 12 18 19 22 25 27 23 21 20 21 18 15 14 7 6 19 18 24 23 23
Wind_Direction
347 340 340 340 337 336 334 330 321 303 279 262 257 258 258 259 260 255 238 237 236 263 237 250 259 265 263 264 222 246 112 229 309 4 148 168 182 184 273 261 53 48 104 133 138
342 333 329 327 327 330 331 331 330 316 290 265 255 254 255 262 265 253 223 241 245 249 242 229 232 240 266 252 217 12 62 281 11 43 36 196 206 168 188 190 128 101 107 130 137
339 330 325 323 323 325 327 328 330 324 301 269 248 244 250 266 285 244 222 235 234 229 224 257 287 275 264 256 30 286 33 344 16 36 339 151 200 174 40 23 310 126 137 144 142
339 333 327 322 319 317 317 318 320 320 307 276 248 237 237 245 282 43 198 217 223 222 233 268 261 266 272 333 289 75 18 278 360 82 55 125 135 77 89 180 263 133 146 144 152
336 330 327 324 318 312 307 303 303 307 299 274 249 235 234 255 252 252 231 206 213 219 229 256 265 282 309 245 29 65 245 237 89 143 125 178 85 128 137 145 195 137 153 173 157
328 325 324 323 318 311 301 292 283 280 279 259 246 239 237 251 118 234 210 209 209 213 236 253 270 331 296 304 53 159 235 334 30 91 146 144 139 118 185 194 235 155 169 171 155
324 322 320 318 316 310 299 285 272 260 255 241 236 241 247 232 225 215 210 215 209 217 238 242 271 290 290 288 327 211 224 88 9 304 192 153 201 239 159 177 162 167 184 156 151
326 322 319 315 314 310 302 284 257 243 241 232 234 246 253 239 227 238 223 218 219 226 243 274 303 272 280 281 264 243 239 113 235 225 186 204 263 201 184 174 181 188 168 194 151
328 324 320 316 314 316 313 283 248 233 229 224 232 235 258 228 211 217 217 215 216 228 238 255 272 270 271 257 269 11 251 288 157 247 168 200 199 211 191 201 203 203 205 168 165
332 325 322 317 311 316 317 286 244 225 221 226 226 265 242 229 222 218 211 214 215 228 233 237 248 252 249 256 243 235 258 217 146 196 210 201 231 180 195 205 214 165 206 182 176
332 328 321 316 305 301 275 241 253 225 210 216 198 219 115 216 204 200 202 210 218 222 229 232 240 241 250 254 283 284 315 287 131 158 225 255 222 196 183 205 203 202 206 198 190
331 327 321 313 300 274 249 227 337 312 293 237 245 232 260 202 181 198 197 206 217 231 221 243 239 245 264 276 282 319 285 280 37 161 229 260 263 213 178 193 198 204 203 208 206
328 325 319 310 300 270 250 238 300 310 280 266 224 228 231 218 223 205 204 207 224 230 244 247 254 235 237 261 268 260 268 282 317 312 287 269 275 71 313 191 190 210 214 208 209
325 322 314 306 319 293 255 298 267 303 279 249 205 215 215 214 242 233 199 211 224 246 241 250 259 264 251 256 270 265 281 313 321 293 286 208 275 137 76 309 280 194 210 216 206
324 320 300 256 241 226 45 239 267 266 280 109 147 219 206 199 333 205 197 207 240 229 238 259 259 247 256 265 260 264 275 261 290 276 276 241 241 161 156 185 248 189 199 203 206
324 319 296 252 243 198 280 258 282 235 248 157 147 197 213 207 227 223 206 208 232 248 265 267 265 272 252 263 249 272 258 300 272 259 263 291 248 144 174 197 221 202 191 194 209
325 317 289 211 3 234 237 223 222 248 105 180 185 188 206 208 218 235 187 214 222 233 248 256 251 248 258 262 270 229 253 251 256 239 259 57 4 221 202 212 217 195 192 188 193
328 327 354 206 231 242 201 221 248 269 245 102 349 290 221 213 204 224 207 230 227 242 263 257 236 213 218 222 250 235 233 249 263 303 290 153 214 133 197 173 158 156 186 181 190
333 24 4 337 211 197 215 222 239 290 4 7 332 264 261 232 255 197 229 230 234 220 244 273 275 311 202 209 215 253 233 258 273 279 278 273 190 190 112 70 146 171 175 178 182
276 252 308 242 190 178 234 251 285 343 349 324 299 295 306 281 202 229 220 224 236 241 228 246 268 276 243 189 219 237 260 240 238 272 280 274 61 83 34 2 282 165 177 176 173
288 240 115 145 155 219 241 247 256 41 36 309 301 297 308 296 310 292 229 249 250 234 235 242 249 263 277 213 226 214 239 258 271 274 292 292 116 133 143 99 306 222 103 151 169
290 291 134 169 221 219 244 286 344 305 294 286 276 282 287 296 301 300 301 299 24 317 282 243 246 243 254 266 238 234 237 226 246 256 257 284 311 152 185 191 202 113 146 271 156
300 344 147 207 265 290 246 283 287 298 298 308 300 307 316 298 294 292 287 297 302 308 1 352 293 276 260 255 253 227 225 250 236 241 263 271 205 167 204 188 181 136 193 132 168
296 283 159 213 262 284 323 319 297 146 275 296 291 310 298 288 277 275 275 279 285 310 50 305 277 271 278 278 273 294 279 224 247 242 244 255 227 175 196 215 154 130 127 144 166
323 25 357 307 34 342 315 314 305 292 308 299 291 295 296 303 303 302 302 326 314 314 324 248 262 268 274 280 287 283 222 263 234 258 262 259 232 171 342 305 140 143 150 162 160
359 355 339 299 297 286 272 258 295 350 354 326 318 312 320 318 294 302 313 310 314 300 299 296 307 298 255 263 273 279 262 264 265 228 244 255 258 146 192 195 138 201 162 171 157
1 341 305 295 288 313 21 340 328 320 304 294 319 318 304 302 332 321 305 296 293 290 284 292 293 294 288 287 277 262 259 258 244 262 231 246 255 109 109 132 170 170 171 169 164